[[{"header":{"parameterUnit":"m.s-1","parameterCategory":1,"la1":30.2992,"la2":30.254,"lo1":-89.0895,"lo2":-89.0443,"dy":0.0025,"dx":0.0025,"nx":19,"ny":19,"refTime":"2026-03-16T03:00:00:Z","depth":0,"parameterNumber":2,"parameterNumberName":"U-component_of_WINDS"},"data":[0,0,0,1.632,1.632,1.6328,1.6328,1.6342,1.6342,0,0,0,0,0,0,0,0,0,0,0,1.6319,1.6319,1.632,1.632,1.6328,1.6328,1.6342,1.6342,0,0,0,0,0,0,0,0,0,0,0,1.6319,1.6319,1.6319,1.632,1.6328,1.6328,1.6342,1.6335,0,0,0,0,0,0,0,0,0,0,1.6326,1.6326,1.6319,1.6319,1.632,1.6328,1.6328,1.6334,1.6335,1.6339,0,1.6343,0,1.6343,1.6343,1.6343,0,0,0,1.6319,1.6326,1.6327,1.6319,1.632,1.6328,1.6324,1.6335,1.6336,1.6341,1.6344,1.6344,1.6343,1.6343,1.6343,1.6373,1.6373,0,0,1.6318,1.6321,1.6326,1.6328,1.6326,1.6324,1.6325,1.6335,1.6339,1.6344,1.6344,1.6344,1.6343,1.6344,1.6373,1.6373,0,0,0,1.6318,1.6321,1.6321,1.6327,1.6328,1.6324,1.6325,1.6338,1.6338,1.6344,1.6344,1.6343,1.6344,1.6372,1.6373,1.6385,0,0,0,1.6318,1.632,1.6321,1.6323,1.6328,1.6333,1.6328,1.6338,1.6339,1.6344,1.6343,1.6344,1.6372,1.6373,1.6384,1.6389,0,0,0,1.6318,1.632,1.6322,1.6323,1.6327,1.6333,1.6334,1.6338,1.6338,1.6343,1.6344,1.6372,1.6373,1.6383,1.6388,1.6398,0,0,0,1.6319,1.6332,1.6322,1.6338,1.6327,1.6341,1.6334,1.6344,1.635,1.6344,1.6372,1.6373,1.6383,1.6387,1.6397,1.6405,1.6409,0,0,1.6337,1.6334,1.6343,1.6335,1.6351,1.6339,1.6357,1.636,1.6358,1.6368,1.6369,1.6384,1.6388,1.6397,1.6433,1.6436,0,0,0,1.635,1.6356,1.636,1.6366,1.6369,1.6372,1.6372,1.6373,1.6382,1.6364,1.6391,1.6393,1.6398,1.6402,1.6405,1.6409,1.6375,1.6375,1.6375,1.6378,1.6376,1.6391,1.639,1.6396,1.6397,1.6401,1.6403,1.6398,1.6405,1.6407,1.6429,1.6434,1.6436,1.6441,1.6413,1.6413,1.6413,1.6413,1.6404,1.6412,1.6408,1.642,1.6418,1.6428,1.643,1.6427,1.6436,1.6427,1.6432,1.642,1.644,1.6443,1.6414,1.6413,1.6413,1.6413,1.6413,1.6421,1.6425,1.6427,1.6437,1.6445,1.6444,1.6453,1.6451,1.6449,1.6454,1.6457,1.6456,1.6455,1.6456,1.6456,1.6456,1.6456,1.6456,1.6456,1.6438,1.644,1.6448,1.6454,1.6459,1.6464,1.6467,1.6471,1.6475,1.6473,1.6473,1.6468,1.6442,1.6435,1.6457,1.6457,1.6457,1.6457,1.6457,1.6462,1.6457,1.647,1.6474,1.6482,1.649,1.6488,1.6498,1.6501,1.6506,1.6501,1.6483,1.648,1.6477,1.6472,1.6502,1.6502,1.6502,1.6502,1.6476,1.6475,1.6488,1.6496,1.6503,1.6503,1.6519,1.6522,1.6524,1.6526,1.6522,1.6515,1.6513,1.651,1.6508,1.6502,1.6539,1.6539,1.6539,1.6491,1.6491,1.6503,1.6506,1.6513,1.6518,1.6533,1.6542,1.6543,1.6541,1.6528,1.6526,1.6514,1.6511,1.6505,1.6501,1.6491,0,0]},{"header":{"parameterUnit":"m.s-1","parameterCategory":1,"la1":30.2992,"la2":30.254,"lo1":-89.0895,"lo2":-89.0443,"dy":0.0025,"dx":0.0025,"nx":19,"ny":19,"refTime":"2026-03-16T03:00:00:Z","depth":0,"parameterNumber":3,"parameterNumberName":"V-component_of_WINDS"},"data":[0,0,0,-6.6874,-6.6879,-6.7145,-6.7146,-6.7492,-6.7495,0,0,0,0,0,0,0,0,0,0,0,-6.6801,-6.6804,-6.6873,-6.688,-6.7145,-6.7146,-6.7491,-6.7495,0,0,0,0,0,0,0,0,0,0,0,-6.68,-6.6803,-6.6806,-6.6881,-6.7145,-6.7146,-6.7491,-6.7287,0,0,0,0,0,0,0,0,0,0,-6.7028,-6.6968,-6.6802,-6.6806,-6.6883,-6.7145,-6.7147,-6.7278,-6.73,-6.7375,0,-6.7445,0,-6.7476,-6.7519,-6.752,0,0,0,-6.6875,-6.6949,-6.7016,-6.6807,-6.6885,-6.7144,-6.7024,-6.729,-6.7316,-6.7405,-6.745,-6.7463,-6.7482,-6.7521,-6.7523,-6.7977,-6.7979,0,0,-6.686,-6.6852,-6.6998,-6.7032,-6.6995,-6.7016,-6.7032,-6.7305,-6.7353,-6.7451,-6.7471,-6.7487,-6.7523,-6.7526,-6.7975,-6.7978,0,0,0,-6.6821,-6.6842,-6.6901,-6.7018,-6.7066,-6.7023,-6.7043,-6.7341,-6.7361,-6.7474,-6.7491,-6.7525,-6.753,-6.7972,-6.7976,-6.8086,0,0,0,-6.6812,-6.6819,-6.6895,-6.6892,-6.7061,-6.7208,-6.7072,-6.7342,-6.7373,-6.749,-6.7526,-6.7533,-6.797,-6.7974,-6.8077,-6.8139,0,0,0,-6.6782,-6.6815,-6.6856,-6.6891,-6.7006,-6.7203,-6.7239,-6.7349,-6.7384,-6.752,-6.7534,-6.7968,-6.7973,-6.8069,-6.8126,-6.8256,0,0,0,-6.6746,-6.6949,-6.6858,-6.7091,-6.7003,-6.727,-6.7237,-6.7436,-6.7566,-6.7527,-6.797,-6.7976,-6.8067,-6.8118,-6.8248,-6.8364,-6.8411,0,0,-6.6998,-6.6979,-6.7117,-6.7043,-6.7324,-6.723,-6.7526,-6.7652,-6.7671,-6.7873,-6.7885,-6.808,-6.8125,-6.8254,-6.8682,-6.8719,0,0,0,-6.7194,-6.7293,-6.737,-6.7494,-6.7596,-6.7688,-6.777,-6.7816,-6.7988,-6.7774,-6.8162,-6.8189,-6.8265,-6.8321,-6.8353,-6.8418,-6.8001,-6.8,-6.8,-6.7539,-6.7554,-6.7783,-6.783,-6.7951,-6.8033,-6.8132,-6.8208,-6.8187,-6.8278,-6.8338,-6.8596,-6.8661,-6.8685,-6.8753,-6.8401,-6.8401,-6.8401,-6.8402,-6.7909,-6.8051,-6.802,-6.8231,-6.8245,-6.8421,-6.8507,-6.8487,-6.8651,-6.8552,-6.8619,-6.8509,-6.8726,-6.8786,-6.841,-6.8409,-6.8408,-6.8407,-6.8406,-6.8136,-6.8207,-6.8261,-6.8442,-6.8579,-6.8619,-6.8779,-6.8786,-6.8793,-6.886,-6.8923,-6.8922,-6.892,-6.889,-6.8891,-6.8892,-6.8892,-6.8893,-6.8894,-6.835,-6.8408,-6.8544,-6.8669,-6.8749,-6.8856,-6.8939,-6.9018,-6.9106,-6.9098,-6.9099,-6.9068,-6.8745,-6.8664,-6.8907,-6.8905,-6.8903,-6.8902,-6.8901,-6.872,-6.8638,-6.8847,-6.8928,-6.9075,-6.921,-6.9217,-6.9376,-6.9441,-6.952,-6.9475,-6.9236,-6.9216,-6.9191,-6.9124,-6.9472,-6.9472,-6.9472,-6.9472,-6.8912,-6.8903,-6.9119,-6.9247,-6.9373,-6.94,-6.9634,-6.9701,-6.9756,-6.9797,-6.9748,-6.9659,-6.9632,-6.9629,-6.9594,-6.9531,-6.9975,-6.9976,-6.9976,-6.914,-6.9144,-6.9343,-6.9398,-6.9513,-6.9611,-6.9831,-6.9978,-7.0023,-6.9997,-6.9829,-6.9808,-6.9665,-6.9618,-6.9587,-6.9532,-6.9417,0,0]}]]